Find Starlink 37717

NORAD ID: 100226 Int'l Des: 2026-177 Owner: SPXS Country: US Constellation: starlink operational

現在のビュー

3D地球を読み込み中...

About Starlink 37717

Starlink 37717 (NORAD 100226) is a starlink constellation satellite launched Aug 4, 2026 by SPXS of US. with a mass of 575.00 kg.

次回通過

Passes for default location (London). Set your location on the main map for personalized predictions.

高度履歴

Loading altitude history...

軌道要素

1 A0226U 26177P 26224.27071095 -.00850485 00000-0 -44683-2 0 9999
2 A0226 97.2850 273.5731 0000943 18.7224 341.4080 15.82757113 2340
Epoch: Aug 12, 2026 • Age: 33 hours

現在のステータス

高度 331.9 km
遠地点 / 近地点 N/A
速度 7.71 km/s
衛星直下点 11.95°N, 91.93°W
打ち上げ日 Aug 4, 2026
運用期間 8 days
タイプ internet

技術仕様

分類 Payload
質量 575.00 kg
乾燥質量 530.00 kg
総質量 575.00 kg
長さ 0.30 m
直径 4.10 m
スパン 29.00 m
形状 Box
製造者 SPXS
バスタイプ Starlink V2MO
フェーズステータス In Orbit
所有者/国 SPXS/US

Most Searched